Location: Helsinki
(60.1699°N, 24.9384°E)
Time: 16:20:18
(UTC+02:00)

Vanguard 3 - All Passes

Search period start: 30 October 2020 00:00
Search period end: 09 November 2020 00:00
Orbit: 507 x 3263 km, 33.4° (Epoch: 29 October)

Date Brightness Start Highest point End Pass type
(mag) Time Alt. Az. Time Alt. Az. Time Alt. Az.
30 Oct - 04:31:44 10° S 04:41:52 18° SE 04:52:40 10° ESE visible
30 Oct - 06:39:41 10° SW 06:53:36 26° S 07:07:26 10° SE visible
30 Oct - 08:51:53 10° WSW 09:05:51 25° SSW 09:18:26 10° SSE daylight
30 Oct - 11:08:26 10° WSW 11:17:01 15° SW 11:24:42 10° SSW daylight
31 Oct - 03:22:23 10° SSE 03:27:40 12° SE 03:33:16 10° ESE visible
31 Oct - 05:26:07 10° SSW 05:38:36 24° SSE 05:51:55 10° ESE visible
31 Oct - 07:36:31 10° SW 07:50:48 27° S 08:04:38 10° SE daylight
31 Oct - 09:50:31 10° WSW 10:02:43 21° SSW 10:13:40 10° S daylight
01 Nov - 04:13:49 10° S 04:23:57 19° SSE 04:35:12 10° ESE visible
01 Nov - 06:22:03 10° SW 06:35:40 27° S 06:49:54 10° SE visible
01 Nov - 08:34:13 10° WSW 08:47:56 25° SSW 09:00:55 10° SSE daylight
01 Nov - 10:51:02 10° WSW 10:59:09 14° SW 11:06:39 10° SSW daylight
02 Nov - 03:03:54 10° SSE 03:09:48 13° SE 03:16:14 10° ESE visible
02 Nov - 05:08:34 10° SSW 05:20:41 24° SSE 05:34:15 10° ESE visible
02 Nov - 07:18:59 10° SW 07:32:52 27° S 07:47:01 10° SE daylight
02 Nov - 09:32:58 10° WSW 09:44:48 20° SSW 09:55:53 10° S daylight
03 Nov - 03:56:14 10° S 04:06:05 19° SSE 04:17:29 10° ESE visible
03 Nov - 06:04:39 10° SW 06:17:45 27° S 06:32:09 10° SE visible
03 Nov - 08:16:45 10° WSW 08:30:00 24° SSW 08:43:08 10° SSE daylight
03 Nov - 10:34:03 10° WSW 10:41:14 13° SW 10:48:06 10° SSW daylight
04 Nov - 02:46:00 10° SSE 02:52:00 13° SE 02:58:45 10° ESE visible
04 Nov - 04:51:14 10° SSW 05:02:50 24° SSE 05:16:22 10° ESE visible
04 Nov - 07:01:39 10° SW 07:14:57 26° S 07:29:10 10° SE visible
04 Nov - 09:15:41 10° WSW 09:26:51 19° SSW 09:37:46 10° S daylight
05 Nov - 03:38:56 10° S 03:48:19 19° SSE 03:59:33 10° ESE visible
05 Nov - 05:47:27 10° SW 05:59:53 26° S 06:14:11 10° SE visible
05 Nov - 07:59:31 10° WSW 08:12:03 23° SSW 08:25:05 10° SSE daylight
05 Nov - 10:17:42 10° WSW 10:23:17 12° SW 10:28:46 10° SSW daylight
06 Nov - 02:28:31 10° SSE 02:34:19 13° SE 02:40:58 10° ESE visible
06 Nov - 04:34:09 10° SSW 04:45:03 24° SSE 04:58:18 10° ESE visible
06 Nov - 06:44:32 10° SW 06:57:03 25° S 07:11:04 10° SE visible
06 Nov - 08:58:42 10° WSW 09:08:54 17° SSW 09:19:15 10° S daylight
07 Nov - 03:21:52 10° S 03:30:38 19° SSE 03:41:26 10° ESE visible
07 Nov - 05:30:29 10° SW 05:42:05 25° S 05:56:00 10° SE visible
07 Nov - 07:42:32 10° WSW 07:54:09 21° SSW 08:06:44 10° SSE daylight
07 Nov - 10:03:14 10° SW 10:05:21 10° SW 10:07:26 10° SW daylight
08 Nov - 02:11:22 10° SSE 02:16:44 13° SE 02:22:58 10° ESE visible
08 Nov - 04:17:16 10° SSW 04:27:21 23° SSE 04:40:03 10° SE visible
08 Nov - 06:27:39 10° SW 06:39:14 24° S 06:52:43 10° SSE visible
08 Nov - 08:42:06 10° WSW 08:50:59 16° SW 09:00:16 10° S daylight
